Time,TemperatureF,DewpointF,PressureIn,WindDirection,WindDirectionDegrees,WindSpeedMPH,WindSpeedGustMPH,Humidity,HourlyPrecipIn,Conditions,Clouds,dailyrainin,SoftwareType,DateUTC
2013-03-13 00:02:00,35.0,25.0,-100.00,WSW,244,21.0,39.0,68,0.00,,,-99.99,,2013-03-13 06:02:00,
2013-03-13 00:12:00,35.0,25.0,-100.00,WSW,243,21.0,35.0,68,0.00,,,-99.99,,2013-03-13 06:12:00,
2013-03-13 00:22:00,35.0,26.0,-100.00,WSW,240,21.0,35.0,69,0.00,,,-99.99,,2013-03-13 06:22:00,
2013-03-13 00:32:00,34.0,25.0,-100.00,WSW,243,19.0,31.0,68,0.00,,,-99.99,,2013-03-13 06:32:00,
2013-03-13 00:42:00,35.0,25.0,-100.00,WSW,237,20.0,32.0,67,0.00,,,-99.99,,2013-03-13 06:42:00,
2013-03-13 00:52:00,35.0,25.0,-100.00,WSW,237,23.0,40.0,67,0.00,,,-99.99,,2013-03-13 06:52:00,
2013-03-13 01:02:00,35.0,25.0,-100.00,WSW,240,23.0,37.0,67,0.00,,,-99.99,,2013-03-13 07:02:00,
2013-03-13 01:12:00,35.0,25.0,-100.00,WSW,240,24.0,37.0,67,0.00,,,-99.99,,2013-03-13 07:12:00,
2013-03-13 01:22:00,34.0,26.0,-100.00,WSW,239,26.0,53.0,70,0.00,,,-99.99,,2013-03-13 07:22:00,
2013-03-13 01:32:00,35.0,25.0,-100.00,WSW,239,26.0,44.0,67,0.00,,,-99.99,,2013-03-13 07:32:00,
2013-03-13 01:42:00,35.0,25.0,-100.00,WSW,243,26.0,41.0,66,0.00,,,-99.99,,2013-03-13 07:42:00,
2013-03-13 01:52:00,35.0,25.0,-100.00,WSW,244,22.0,35.0,67,0.00,,,-99.99,,2013-03-13 07:52:00,
2013-03-13 02:03:00,35.0,24.0,-100.00,WSW,246,19.0,39.0,66,0.00,,,-99.99,,2013-03-13 08:03:00,
2013-03-13 02:12:00,34.0,26.0,-100.00,WSW,239,23.0,43.0,70,0.00,,,-99.99,,2013-03-13 08:12:00,
2013-03-13 02:22:00,33.0,26.0,-100.00,SW,236,27.0,42.0,74,0.00,,,-99.99,,2013-03-13 08:22:00,
2013-03-13 02:32:00,34.0,25.0,-100.00,WSW,239,24.0,38.0,69,0.00,,,-99.99,,2013-03-13 08:32:00,
2013-03-13 02:42:00,35.0,25.0,-100.00,WSW,246,22.0,37.0,67,0.00,,,-99.99,,2013-03-13 08:42:00,
2013-03-13 02:52:00,34.0,25.0,-100.00,WSW,256,18.0,27.0,69,0.00,,,-99.99,,2013-03-13 08:52:00,
2013-03-13 03:02:00,35.0,25.0,-100.00,WSW,254,19.0,29.0,67,0.00,,,-99.99,,2013-03-13 09:02:00,
2013-03-13 03:12:00,35.0,24.0,-100.00,WSW,241,17.0,28.0,65,0.00,,,-99.99,,2013-03-13 09:12:00,
2013-03-13 03:22:00,35.0,24.0,-100.00,SW,234,10.0,21.0,65,0.00,,,-99.99,,2013-03-13 09:22:00,
2013-03-13 03:32:00,34.0,25.0,-100.00,WSW,247,14.0,34.0,70,0.00,,,-99.99,,2013-03-13 09:32:00,
2013-03-13 03:42:00,34.0,25.0,-100.00,WSW,247,18.0,35.0,71,0.00,,,-99.99,,2013-03-13 09:42:00,
2013-03-13 03:52:00,33.0,26.0,-100.00,WSW,258,29.0,39.0,74,0.00,,,-99.99,,2013-03-13 09:52:00,
2013-03-13 04:02:00,33.0,27.0,-100.00,WSW,258,30.0,47.0,79,0.00,,,-99.99,,2013-03-13 10:02:00,
2013-03-13 04:12:00,33.0,27.0,-100.00,WSW,257,32.0,44.0,80,0.00,,,-99.99,,2013-03-13 10:12:00,
2013-03-13 04:22:00,32.0,27.0,-100.00,WSW,254,27.0,35.0,82,0.00,,,-99.99,,2013-03-13 10:22:00,
2013-03-13 04:32:00,33.0,27.0,-100.00,WSW,253,28.0,44.0,81,0.01,,,-99.99,,2013-03-13 10:32:00,
2013-03-13 04:42:00,33.0,27.0,-100.00,WSW,250,30.0,45.0,81,0.01,,,-99.99,,2013-03-13 10:42:00,
2013-03-13 04:52:00,33.0,26.0,-100.00,WSW,250,26.0,58.0,76,0.00,,,-99.99,,2013-03-13 10:52:00,
2013-03-13 05:02:00,34.0,26.0,-100.00,WSW,248,27.0,45.0,72,0.00,,,-99.99,,2013-03-13 11:02:00,
2013-03-13 05:12:00,34.0,26.0,-100.00,WSW,250,26.0,41.0,72,0.00,,,-99.99,,2013-03-13 11:12:00,
2013-03-13 05:22:00,33.0,26.0,-100.00,WSW,250,20.0,32.0,73,0.00,,,-99.99,,2013-03-13 11:22:00,
2013-03-13 05:32:00,33.0,25.0,-100.00,WSW,248,20.0,35.0,70,0.00,,,-99.99,,2013-03-13 11:32:00,
2013-03-13 05:42:00,34.0,24.0,-100.00,SW,222,15.0,39.0,67,0.00,,,-99.99,,2013-03-13 11:42:00,
2013-03-13 05:52:00,34.0,23.0,-100.00,South,178,11.0,23.0,64,0.00,,,-99.99,,2013-03-13 11:52:00,
2013-03-13 06:02:00,35.0,23.0,-100.00,NE,54,5.0,14.0,61,0.00,,,-99.99,,2013-03-13 12:02:00,
2013-03-13 06:12:00,35.0,22.0,-100.00,WSW,256,9.0,20.0,59,0.00,,,-99.99,,2013-03-13 12:12:00,
2013-03-13 06:22:00,36.0,22.0,-100.00,WNW,301,11.0,28.0,57,0.00,,,-99.99,,2013-03-13 12:22:00,
2013-03-13 06:32:00,35.0,23.0,-100.00,WSW,258,14.0,35.0,60,0.00,,,-99.99,,2013-03-13 12:32:00,
2013-03-13 06:42:00,35.0,22.0,-100.00,WSW,243,8.0,24.0,60,0.00,,,-99.99,,2013-03-13 12:42:00,
2013-03-13 06:52:00,35.0,23.0,-100.00,WSW,248,15.0,24.0,61,0.00,,,-99.99,,2013-03-13 12:52:00,
2013-03-13 07:02:00,35.0,23.0,-100.00,WSW,241,16.0,32.0,63,0.00,,,-99.99,,2013-03-13 13:02:00,
2013-03-13 07:11:00,34.0,24.0,-100.00,WSW,240,14.0,31.0,66,0.00,,,-99.99,,2013-03-13 13:11:00,
2013-03-13 07:22:00,35.0,24.0,-100.00,WSW,244,16.0,28.0,64,0.00,,,-99.99,,2013-03-13 13:22:00,
2013-03-13 07:33:00,35.0,23.0,-100.00,SW,222,14.0,27.0,63,0.00,,,-99.99,,2013-03-13 13:33:00,
2013-03-13 07:42:00,34.0,24.0,-100.00,South,188,10.0,26.0,64,0.00,,,-99.99,,2013-03-13 13:42:00,
2013-03-13 07:52:00,35.0,23.0,-100.00,SSE,164,9.0,23.0,60,0.00,,,-99.99,,2013-03-13 13:52:00,
2013-03-13 08:02:00,35.0,23.0,-100.00,South,191,7.0,14.0,60,0.00,,,-99.99,,2013-03-13 14:02:00,
2013-03-13 08:12:00,36.0,23.0,-100.00,SSE,165,7.0,19.0,59,0.00,,,-99.99,,2013-03-13 14:12:00,
2013-03-13 08:21:00,36.0,23.0,-100.00,South,184,7.0,20.0,59,0.00,,,-99.99,,2013-03-13 14:21:00,
2013-03-13 08:33:00,37.0,23.0,-100.00,SSE,154,7.0,20.0,56,0.00,,,-99.99,,2013-03-13 14:33:00,
2013-03-13 08:42:00,37.0,23.0,-100.00,South,182,4.0,17.0,55,0.00,,,-99.99,,2013-03-13 14:42:00,
2013-03-13 08:52:00,38.0,22.0,-100.00,NNE,28,6.0,12.0,54,0.00,,,-99.99,,2013-03-13 14:52:00,
2013-03-13 09:03:00,38.0,23.0,-100.00,WSW,258,7.0,17.0,53,0.00,,,-99.99,,2013-03-13 15:03:00,
2013-03-13 09:12:00,38.0,23.0,-100.00,WNW,289,7.0,12.0,54,0.00,,,-99.99,,2013-03-13 15:12:00,
2013-03-13 09:22:00,39.0,21.0,-100.00,ESE,113,9.0,21.0,49,0.00,,,-99.99,,2013-03-13 15:22:00,
2013-03-13 09:32:00,40.0,23.0,-100.00,ESE,116,9.0,19.0,50,0.00,,,-99.99,,2013-03-13 15:32:00,
2013-03-13 09:42:00,40.0,23.0,-100.00,East,88,7.0,19.0,52,0.00,,,-99.99,,2013-03-13 15:42:00,
2013-03-13 09:52:00,39.0,24.0,-100.00,North,10,5.0,9.0,53,0.00,,,-99.99,,2013-03-13 15:52:00,
2013-03-13 10:02:00,41.0,24.0,-100.00,NW,325,5.0,13.0,50,0.00,,,-99.99,,2013-03-13 16:02:00,
2013-03-13 10:12:00,41.0,24.0,-100.00,WNW,282,4.0,11.0,51,0.00,,,-99.99,,2013-03-13 16:12:00,
2013-03-13 10:22:00,40.0,24.0,-100.00,SW,232,10.0,17.0,53,0.00,,,-99.99,,2013-03-13 16:22:00,
2013-03-13 10:32:00,40.0,25.0,-100.00,SW,233,11.0,21.0,53,0.00,,,-99.99,,2013-03-13 16:32:00,
2013-03-13 10:42:00,40.0,25.0,-100.00,SW,233,19.0,32.0,55,0.00,,,-99.99,,2013-03-13 16:42:00,
2013-03-13 10:52:00,40.0,26.0,-100.00,WSW,237,20.0,32.0,57,0.00,,,-99.99,,2013-03-13 16:52:00,
2013-03-13 11:02:00,40.0,25.0,-100.00,WSW,239,20.0,29.0,54,0.00,,,-99.99,,2013-03-13 17:02:00,
2013-03-13 11:12:00,40.0,25.0,-100.00,WSW,237,21.0,32.0,53,0.00,,,-99.99,,2013-03-13 17:12:00,
2013-03-13 11:22:00,40.0,26.0,-100.00,SW,230,21.0,32.0,55,0.00,,,-99.99,,2013-03-13 17:22:00,
2013-03-13 11:32:00,40.0,26.0,-100.00,SW,227,24.0,35.0,55,0.00,,,-99.99,,2013-03-13 17:32:00,
2013-03-13 11:42:00,40.0,25.0,-100.00,SW,229,22.0,35.0,54,0.00,,,-99.99,,2013-03-13 17:42:00,
2013-03-13 11:53:00,41.0,24.0,-100.00,SW,232,23.0,35.0,51,0.00,,,-99.99,,2013-03-13 17:53:00,
2013-03-13 12:02:00,42.0,24.0,-100.00,WSW,240,19.0,35.0,50,0.00,,,-99.99,,2013-03-13 18:02:00,
2013-03-13 12:12:00,41.0,24.0,-100.00,WSW,248,17.0,30.0,50,0.00,,,-99.99,,2013-03-13 18:12:00,
2013-03-13 12:22:00,42.0,24.0,-100.00,WSW,244,18.0,32.0,49,0.00,,,-99.99,,2013-03-13 18:22:00,
2013-03-13 12:33:00,42.0,24.0,-100.00,WSW,246,19.0,29.0,47,0.00,,,-99.99,,2013-03-13 18:33:00,
2013-03-13 12:42:00,42.0,23.0,-100.00,WSW,244,19.0,28.0,46,0.00,,,-99.99,,2013-03-13 18:42:00,
2013-03-13 12:52:00,43.0,24.0,-100.00,WSW,246,18.0,30.0,47,0.00,,,-99.99,,2013-03-13 18:52:00,
2013-03-13 13:02:00,43.0,22.0,-100.00,WSW,243,15.0,26.0,43,0.00,,,-99.99,,2013-03-13 19:02:00,
2013-03-13 13:12:00,44.0,21.0,-100.00,WSW,247,14.0,24.0,41,0.00,,,-99.99,,2013-03-13 19:12:00,
2013-03-13 13:22:00,45.0,21.0,-100.00,West,261,11.0,19.0,39,0.00,,,-99.99,,2013-03-13 19:22:00,
2013-03-13 13:32:00,47.0,23.0,-100.00,WNW,302,4.0,10.0,38,0.00,,,-99.99,,2013-03-13 19:32:00,
2013-03-13 13:43:00,45.0,22.0,-100.00,NW,318,4.0,14.0,39,0.00,,,-99.99,,2013-03-13 19:43:00,
2013-03-13 13:52:00,46.0,20.0,-100.00,South,175,5.0,17.0,34,0.00,,,-99.99,,2013-03-13 19:52:00,
2013-03-13 14:02:00,45.0,19.0,-100.00,SSE,168,7.0,17.0,35,0.00,,,-99.99,,2013-03-13 20:02:00,
2013-03-13 14:12:00,45.0,20.0,-100.00,WSW,237,7.0,17.0,36,0.00,,,-99.99,,2013-03-13 20:12:00,
2013-03-13 14:22:00,44.0,22.0,-100.00,SW,232,12.0,27.0,42,0.00,,,-99.99,,2013-03-13 20:22:00,
2013-03-13 14:32:00,44.0,23.0,-100.00,SW,236,13.0,26.0,42,0.00,,,-99.99,,2013-03-13 20:32:00,
2013-03-13 14:42:00,44.0,23.0,-100.00,WSW,239,16.0,26.0,43,0.00,,,-99.99,,2013-03-13 20:42:00,
2013-03-13 14:52:00,44.0,24.0,-100.00,SW,234,17.0,31.0,46,0.00,,,-99.99,,2013-03-13 20:52:00,
2013-03-13 15:02:00,44.0,24.0,-100.00,SW,234,17.0,27.0,45,0.00,,,-99.99,,2013-03-13 21:02:00,
2013-03-13 15:12:00,44.0,24.0,-100.00,SW,233,19.0,34.0,46,0.00,,,-99.99,,2013-03-13 21:12:00,
2013-03-13 15:22:00,43.0,25.0,-100.00,WSW,243,19.0,32.0,48,0.00,,,-99.99,,2013-03-13 21:22:00,
2013-03-13 15:33:00,44.0,25.0,-100.00,WSW,246,17.0,30.0,48,0.00,,,-99.99,,2013-03-13 21:33:00,
2013-03-13 15:42:00,44.0,25.0,-100.00,WSW,247,16.0,26.0,47,0.00,,,-99.99,,2013-03-13 21:42:00,
2013-03-13 15:51:00,44.0,25.0,-100.00,WSW,239,17.0,30.0,46,0.00,,,-99.99,,2013-03-13 21:51:00,
2013-03-13 16:02:00,45.0,26.0,-100.00,SW,222,13.0,22.0,46,0.00,,,-99.99,,2013-03-13 22:02:00,
2013-03-13 16:12:00,45.0,26.0,-100.00,SW,230,12.0,24.0,46,0.00,,,-99.99,,2013-03-13 22:12:00,
2013-03-13 16:22:00,45.0,25.0,-100.00,WSW,239,15.0,29.0,45,0.00,,,-99.99,,2013-03-13 22:22:00,
2013-03-13 16:32:00,46.0,25.0,-100.00,SW,234,14.0,26.0,44,0.00,,,-99.99,,2013-03-13 22:32:00,
2013-03-13 16:42:00,45.0,25.0,-100.00,WSW,248,16.0,24.0,45,0.00,,,-99.99,,2013-03-13 22:42:00,
2013-03-13 16:52:00,45.0,24.0,-100.00,WSW,240,17.0,28.0,44,0.00,,,-99.99,,2013-03-13 22:52:00,
2013-03-13 17:02:00,44.0,25.0,-100.00,WSW,247,15.0,27.0,46,0.00,,,-99.99,,2013-03-13 23:02:00,
2013-03-13 17:12:00,44.0,25.0,-100.00,WSW,248,14.0,22.0,47,0.00,,,-99.99,,2013-03-13 23:12:00,
2013-03-13 17:22:00,44.0,25.0,-100.00,WSW,240,16.0,26.0,47,0.00,,,-99.99,,2013-03-13 23:22:00,
2013-03-13 17:32:00,44.0,24.0,-100.00,WSW,240,16.0,30.0,46,0.00,,,-99.99,,2013-03-13 23:32:00,
2013-03-13 17:42:00,44.0,24.0,-100.00,WSW,243,17.0,27.0,46,0.00,,,-99.99,,2013-03-13 23:42:00,
2013-03-13 17:52:00,44.0,26.0,-100.00,SW,234,16.0,27.0,49,0.00,,,-99.99,,2013-03-13 23:52:00,
2013-03-13 18:02:00,44.0,25.0,-100.00,WSW,241,18.0,34.0,46,0.00,,,-99.99,,2013-03-14 00:02:00,
2013-03-13 18:12:00,44.0,25.0,-100.00,SW,236,22.0,34.0,48,0.00,,,-99.99,,2013-03-14 00:12:00,
2013-03-13 18:22:00,44.0,25.0,-100.00,WSW,240,17.0,30.0,48,0.00,,,-99.99,,2013-03-14 00:22:00,
2013-03-13 18:32:00,44.0,26.0,-100.00,WSW,244,19.0,34.0,48,0.00,,,-99.99,,2013-03-14 00:32:00,
2013-03-13 18:42:00,44.0,26.0,-100.00,WSW,244,19.0,29.0,48,0.00,,,-99.99,,2013-03-14 00:42:00,
2013-03-13 18:52:00,43.0,26.0,-100.00,WSW,253,19.0,32.0,51,0.00,,,-99.99,,2013-03-14 00:52:00,
2013-03-13 19:02:00,43.0,27.0,-100.00,WSW,250,15.0,26.0,52,0.00,,,-99.99,,2013-03-14 01:02:00,
2013-03-13 19:12:00,43.0,26.0,-100.00,WSW,248,14.0,26.0,52,0.00,,,-99.99,,2013-03-14 01:12:00,
2013-03-13 19:22:00,43.0,26.0,-100.00,WSW,248,15.0,22.0,51,0.00,,,-99.99,,2013-03-14 01:22:00,
2013-03-13 19:32:00,43.0,26.0,-100.00,WSW,244,16.0,26.0,52,0.00,,,-99.99,,2013-03-14 01:32:00,
2013-03-13 19:42:00,42.0,26.0,-100.00,WSW,243,17.0,27.0,53,0.00,,,-99.99,,2013-03-14 01:42:00,
2013-03-13 19:52:00,43.0,26.0,-100.00,WSW,243,16.0,29.0,51,0.00,,,-99.99,,2013-03-14 01:52:00,
2013-03-13 20:02:00,42.0,26.0,-100.00,WSW,240,13.0,26.0,54,0.00,,,-99.99,,2013-03-14 02:02:00,
2013-03-13 20:12:00,42.0,26.0,-100.00,WSW,246,13.0,24.0,52,0.00,,,-99.99,,2013-03-14 02:12:00,
2013-03-13 20:22:00,42.0,26.0,-100.00,WSW,253,14.0,26.0,53,0.00,,,-99.99,,2013-03-14 02:22:00,
2013-03-13 20:32:00,42.0,25.0,-100.00,WSW,253,11.0,22.0,52,0.00,,,-99.99,,2013-03-14 02:32:00,
2013-03-13 20:42:00,42.0,25.0,-100.00,WSW,253,11.0,22.0,52,0.00,,,-99.99,,2013-03-14 02:42:00,
2013-03-13 20:51:00,42.0,25.0,-100.00,WSW,253,11.0,22.0,52,0.00,,,-99.99,,2013-03-14 02:51:00,
2013-03-13 21:02:00,43.0,25.0,-100.00,WSW,248,17.0,27.0,48,0.00,,,-99.99,,2013-03-14 03:02:00,
2013-03-13 21:12:00,42.0,25.0,-100.00,WSW,254,17.0,27.0,50,0.00,,,-99.99,,2013-03-14 03:12:00,
2013-03-13 21:22:00,43.0,24.0,-100.00,WSW,254,17.0,28.0,47,0.00,,,-99.99,,2013-03-14 03:22:00,
2013-03-13 21:32:00,43.0,25.0,-100.00,WSW,250,15.0,26.0,49,0.00,,,-99.99,,2013-03-14 03:32:00,
2013-03-13 21:42:00,43.0,25.0,-100.00,WSW,250,16.0,24.0,49,0.00,,,-99.99,,2013-03-14 03:42:00,
2013-03-13 21:52:00,43.0,24.0,-100.00,WSW,257,17.0,26.0,47,0.00,,,-99.99,,2013-03-14 03:52:00,
2013-03-13 22:12:00,44.0,24.0,-100.00,WSW,246,17.0,27.0,47,0.00,,,-99.99,,2013-03-14 04:12:00,
2013-03-13 22:22:00,43.0,25.0,-100.00,WSW,237,16.0,31.0,47,0.00,,,-99.99,,2013-03-14 04:22:00,
2013-03-13 22:32:00,43.0,24.0,-100.00,WSW,244,12.0,23.0,47,0.00,,,-99.99,,2013-03-14 04:32:00,
2013-03-13 22:42:00,43.0,25.0,-100.00,WSW,243,12.0,24.0,48,0.00,,,-99.99,,2013-03-14 04:42:00,
2013-03-13 22:52:00,42.0,24.0,-100.00,WSW,239,12.0,25.0,48,0.00,,,-99.99,,2013-03-14 04:52:00,
2013-03-13 23:02:00,42.0,24.0,-100.00,WSW,243,11.0,21.0,49,0.00,,,-99.99,,2013-03-14 05:02:00,
2013-03-13 23:12:00,42.0,24.0,-100.00,WSW,244,10.0,18.0,47,0.00,,,-99.99,,2013-03-14 05:12:00,
2013-03-13 23:22:00,42.0,24.0,-100.00,WSW,240,14.0,27.0,49,0.00,,,-99.99,,2013-03-14 05:22:00,
2013-03-13 23:33:00,42.0,24.0,-100.00,WSW,240,17.0,30.0,49,0.00,,,-99.99,,2013-03-14 05:33:00,
2013-03-13 23:42:00,42.0,24.0,-100.00,SW,233,20.0,32.0,50,0.00,,,-99.99,,2013-03-14 05:42:00,
2013-03-13 23:52:00,42.0,25.0,-100.00,SW,224,22.0,33.0,51,0.00,,,-99.99,,2013-03-14 05:52:00,